Lorain / Elyria, OH

7:19 PM EDT on March 29, 2017 (GMT -0400)
Lorain County Regional

Weather History for KLPR - October, 2012

Change the Weather History Date:

Thursday, October 25, 2012

  Actual Average (KCLE) Record (KCLE)
Temperature  
Mean Temperature 67 °F -  
Max Temperature 79 °F 57 °F 80 °F (1963)
Min Temperature 55 °F 41 °F 28 °F (1962)
Cooling Degree Days 2    
Growing Degree Days 17 (Base 50)    
Moisture  
Dew Point 49 °F    
Average Humidity 56    
Maximum Humidity 77    
Minimum Humidity 31    
Precipitation  
Precipitation 0.00 in - - ()
Sea Level Pressure  
Sea Level Pressure 30.01 in    
Wind  
Wind Speed 7 mph (South)    
Max Wind Speed 13 mph    
Max Gust Speed 23 mph    
Visibility 10 miles    
Events      
Averages and records for this station are not official NWS values.
T = Trace of Precipitation, MM = Missing Value Source: NWS Daily Summary

Daily Weather History Graph

Daily Weather History Graph

Search for Another Location

Airport or City:

Trip Planner

Search our weather history database for the weather conditions in past years. The results will help you decide how hot, cold, wet, or windy it might be!

Date:

Astronomy

Oct. 25, 2012 Rise Set
Actual Time 7:52 AM EDT 6:32 PM EDT
Civil Twilight 7:24 AM EDT 7:00 PM EDT
Nautical Twilight 6:51 AM EDT 7:33 PM EDT
Astronomical Twilight 6:19 AM EDT 8:05 PM EDT
Moon 4:19 PM EDT (10/25) 3:45 AM EDT (10/25)
Length of Visible Light 11h 36m
Length of Day
10h 39m
Waxing Gibbous, 84% of the Moon is Illuminated
Oct 25
Waxing Gibbous
Oct 29
Full
Nov 6
Last Quarter
Nov 13
New
Nov 20
First Quarter

Hourly Weather History & Observations

Time (EDT) Temp. Dew Point Humidity Pressure Visibility Wind Dir Wind Speed Gust Speed Precip Events Conditions
12:53 AM 63.0 °F 51.1 °F 65% 30.04 in 10.0 mi South 6.9 mph - N/A   Clear
1:53 AM 62.1 °F 51.1 °F 67% 30.04 in 10.0 mi South 8.1 mph - N/A   Clear
2:53 AM 60.1 °F 51.1 °F 72% 30.04 in 10.0 mi South 4.6 mph - N/A   Clear
3:53 AM 57.0 °F 50.0 °F 77% 30.03 in 10.0 mi Calm Calm - N/A   Clear
4:53 AM 57.9 °F 48.9 °F 72% 30.03 in 10.0 mi South 3.5 mph - N/A   Clear
5:53 AM 57.0 °F 48.9 °F 74% 30.04 in 10.0 mi South 5.8 mph - N/A   Clear
6:53 AM 55.9 °F 48.9 °F 77% 30.05 in 10.0 mi South 5.8 mph - N/A   Clear
7:53 AM 55.9 °F 48.0 °F 75% 30.06 in 10.0 mi South 5.8 mph - N/A   Clear
8:53 AM 59.0 °F 48.9 °F 69% 30.06 in 10.0 mi South 8.1 mph - N/A   Clear
9:53 AM 64.0 °F 51.1 °F 63% 30.07 in 10.0 mi South 9.2 mph - N/A   Clear
10:53 AM 70.0 °F 51.1 °F 51% 30.06 in 10.0 mi South 9.2 mph - N/A   Clear
11:53 AM 73.9 °F 50.0 °F 43% 30.04 in 10.0 mi SSW 11.5 mph - N/A   Clear
12:53 PM 77.0 °F 48.9 °F 37% 30.02 in 10.0 mi SSW 12.7 mph - N/A   Clear
2:53 PM 79.0 °F 46.9 °F 32% 29.96 in 10.0 mi SSW 12.7 mph 23.0 mph N/A   Clear
4:53 PM 78.1 °F 45.0 °F 31% 29.94 in 10.0 mi SSW 9.2 mph 20.7 mph N/A   Clear
5:53 PM 75.0 °F 46.0 °F 36% 29.94 in 10.0 mi South 10.4 mph - N/A   Clear
6:53 PM 72.0 °F 46.9 °F 41% 29.95 in 10.0 mi South 9.2 mph - N/A   Clear
7:53 PM 71.1 °F 48.0 °F 44% 29.94 in 10.0 mi South 9.2 mph - N/A   Clear
9:53 PM 68.0 °F 48.0 °F 49% 29.94 in 10.0 mi SSW 10.4 mph - N/A   Clear
10:53 PM 66.0 °F 48.0 °F 52% 29.94 in 10.0 mi South 8.1 mph - N/A   Clear
11:53 PM 66.0 °F 48.0 °F 52% 29.94 in 10.0 mi SSW 8.1 mph - N/A   Clear